Location: Rometta
(44.2000°N, 10.0500°E)
Time: 15:54:52
(UTC+00:00)

Cosmos 2195 Rocket - Pass Details

Date: 20 January 2021
Orbit: 948 x 994 km, 82.9° (Epoch: 28 February)

Event Time Altitude Azimuth Distance (km) Brightness Sun altitude
Rises 18:11:05 0° 179° (S) 3,683 7.6 -20.8°
Reaches altitude 10° 18:13:35 10° 177° (S) 2,743 6.9 -21.2°
Maximum altitude 18:19:51 73° 95° (E) 1,041 4.4 -22.4°
Drops below altitude 10° 18:26:11 10° 12° (NNE) 2,768 6.7 -23.5°
Sets 18:28:44 0° 10° (N) 3,720 7.4 -23.9°
